User: anonymous
Location: Allison's Woods
(35.8809°N, 80.8140°W)
Time: 20:21:30
(UTC-04:00)
Language:

Iridium 39 - Orbit

View from above orbital plane
View from above orbital plane
View from above satellite
View from above satellite

Ground track
Ground track

The orbit data is extracted from the following two-line orbital elements,

1 25042U 97069D   14274.47554201  .00000285  00000-0  94674-4 0  9955
2 25042 086.3930 075.8523 0002251 112.0423 248.1012 14.34216058884458
Epoch (UTC): 01 October 2014 11:24:46
Eccentricity: 0.0002251
inclination: 86.3930°
perigee height: 776 km
apogee height: 779 km
right ascension of ascending node: 75.8523°
argument of perigee: 112.0423°
revolutions per day: 14.34216058
mean anomaly at epoch: 248.1012°
orbit number at epoch: 88445

The dashed part of the orbit path shows where the satellite is in the earth's shadow,  

DLR